Apalachicola, FL

7:30 PM EDT on July 20, 2017 (GMT -0400)
Apalachicola Municipal

Weather History for KAAF - April, 2013

Change the Weather History Date:

Wednesday, April 24, 2013

  Actual Average Record
Temperature  
Mean Temperature 68 °F 68 °F  
Max Temperature 77 °F 79 °F 86 °F (1949)
Min Temperature 59 °F 58 °F 43 °F (2012)
Degree Days  
Heating Degree Days 0    
Month to date heating degree days 23  
Since 1 July heating degree days 1120  
Cooling Degree Days 3    
Month to date cooling degree days 85  
Year to date cooling degree days 159  
Growing Degree Days 17 (Base 50)    
Moisture  
Dew Point 63 °F    
Average Humidity 80    
Maximum Humidity 90    
Minimum Humidity 69    
Precipitation  
Precipitation 0.00 in 0.07 in 1.19 in (1956)
Month to date precipitation 3.46 2.63  
Year to date precipitation 17.90 16.44  
Sea Level Pressure  
Sea Level Pressure 30.12 in    
Wind  
Wind Speed 8 mph (SSE)    
Max Wind Speed 14 mph    
Max Gust Speed 17 mph    
Visibility 10 miles    
Events      
T = Trace of Precipitation, MM = Missing Value Source: NWS Daily Summary

Daily Weather History Graph

Daily Weather History Graph

Search for Another Location

Airport or City:

Trip Planner

Search our weather history database for the weather conditions in past years. The results will help you decide how hot, cold, wet, or windy it might be!

Date:

Astronomy

Apr. 24, 2013 Rise Set
Actual Time 7:03 AM EDT 8:12 PM EDT
Civil Twilight 6:39 AM EDT 8:37 PM EDT
Nautical Twilight 6:09 AM EDT 9:07 PM EDT
Astronomical Twilight 5:39 AM EDT 9:37 PM EDT
Moon 7:17 PM EDT (4/24) 6:01 AM EDT (4/24)
Length of Visible Light 13h 58m
Length of Day
13h 08m
Waxing Gibbous, 98% of the Moon is Illuminated
Apr 24
Waxing Gibbous
Apr 25
Full
May 2
Last Quarter
May 9
New
May 18
First Quarter

Hourly Weather History & Observations

Time (EDT) Temp. Dew Point Humidity Pressure Visibility Wind Dir Wind Speed Gust Speed Precip Events Conditions
12:53 AM 60.1 °F 55.9 °F 86% 30.10 in 10.0 mi Calm Calm - N/A   Clear
1:53 AM 60.1 °F 55.9 °F 86% 30.10 in 10.0 mi Calm Calm - N/A   Scattered Clouds
2:53 AM 59.0 °F 55.0 °F 87% 30.09 in 10.0 mi Calm Calm - N/A   Clear
3:53 AM 59.0 °F 55.0 °F 87% 30.07 in 10.0 mi SE 4.6 mph - N/A   Clear
4:53 AM 66.9 °F 61.0 °F 81% 30.07 in 10.0 mi SE 8.1 mph - N/A   Clear
5:53 AM 68.0 °F 62.6 °F 83% 30.07 in 10.0 mi SE 10.4 mph - N/A   Clear
6:53 AM 68.0 °F 63.0 °F 84% 30.09 in 10.0 mi SE 8.1 mph 17.3 mph N/A   Clear
7:53 AM 69.1 °F 64.0 °F 84% 30.12 in 10.0 mi SSE 8.1 mph - N/A   Clear
8:53 AM 70.0 °F 64.0 °F 81% 30.14 in 10.0 mi SSE 11.5 mph - N/A   Partly Cloudy
9:53 AM 72.0 °F 64.9 °F 78% 30.14 in 10.0 mi SSE 11.5 mph - N/A   Partly Cloudy
10:53 AM 72.0 °F 64.9 °F 78% 30.16 in 10.0 mi South 9.2 mph - N/A   Mostly Cloudy
11:53 AM 73.9 °F 64.9 °F 73% 30.17 in 10.0 mi SE 12.7 mph - N/A   Mostly Cloudy
12:53 PM 75.0 °F 64.9 °F 71% 30.17 in 10.0 mi SSE 10.4 mph - N/A   Scattered Clouds
1:53 PM 75.0 °F 64.9 °F 71% 30.16 in 10.0 mi South 8.1 mph - N/A   Partly Cloudy
2:53 PM 75.9 °F 64.9 °F 69% 30.14 in 10.0 mi SE 10.4 mph - N/A   Clear
3:53 PM 73.9 °F 66.0 °F 76% 30.12 in 10.0 mi SSE 11.5 mph - N/A   Clear
4:53 PM 73.0 °F 64.9 °F 76% 30.10 in 10.0 mi SSE 9.2 mph - N/A   Clear
5:53 PM 73.0 °F 66.0 °F 79% 30.12 in 10.0 mi South 6.9 mph - N/A   Scattered Clouds
6:53 PM 72.0 °F 66.0 °F 81% 30.12 in 10.0 mi SSE 5.8 mph - N/A   Clear
7:53 PM 71.1 °F 66.0 °F 84% 30.13 in 10.0 mi SSE 3.5 mph - N/A   Scattered Clouds
8:53 PM 70.0 °F 66.0 °F 87% 30.11 in 10.0 mi South 8.1 mph - N/A   Clear
9:53 PM 70.0 °F 66.0 °F 87% 30.12 in 10.0 mi South 10.4 mph - N/A   Clear
10:53 PM 70.0 °F 66.0 °F 87% 30.14 in 10.0 mi South 6.9 mph - N/A   Clear
11:53 PM 70.0 °F 66.0 °F 87% 30.13 in 10.0 mi SSE 5.8 mph - N/A   Clear